Theta_e
291 292 290 290 290 289 288 288 287 286 288 288 287 287 289 287 286 285 287 289 288 290 290 291 291 292 291 292 291 291 291 291 290 289 289 289 289 288 287 288 287 287 286 286 285 285 284 283 283 282 282 282 282 282 282 283 283 283 283 282 282 281 281 280 280 280 280 279 278 277 276 275 275 274 274 273 273 272 272 272 273 271 271 271 271 271 271
290 291 291 289 288 287 287 287 288 288 288 288 288 289 290 289 288 290 289 288 289 291 291 292 293 294 293 292 291 291 290 290 290 289 289 289 289 288 288 289 289 288 287 287 286 285 284 283 283 282 282 282 282 282 283 284 284 284 283 282 281 281 280 280 281 280 280 279 278 277 276 276 275 274 273 272 272 271 271 270 270 270 270 270 270 270 270
287 289 290 289 287 286 286 287 287 289 288 288 289 289 289 289 289 290 290 288 288 293 294 293 292 291 291 290 290 290 290 290 289 289 289 289 290 290 290 289 289 288 288 287 286 285 285 284 283 283 283 283 282 283 283 283 283 284 283 282 281 281 280 280 280 279 279 277 276 276 276 275 274 273 272 271 270 270 269 268 269 269 269 270 269 270 270
285 288 287 288 286 285 285 286 286 286 286 285 288 287 289 288 287 288 288 287 287 290 291 289 290 290 291 290 290 290 290 289 289 289 289 289 289 290 290 289 289 288 288 288 287 286 285 285 284 283 283 283 283 283 283 283 283 284 283 282 281 281 280 280 280 279 278 277 277 276 275 274 273 272 271 270 270 269 268 268 268 267 268 269 269 269 269
284 286 287 286 285 284 283 284 287 288 287 289 290 290 290 290 291 287 286 287 291 291 291 289 288 288 289 289 289 288 288 289 289 289 289 289 290 290 289 289 289 290 289 289 288 287 286 285 284 284 284 284 283 284 283 284 283 283 282 281 281 281 281 281 280 280 279 278 277 275 274 273 271 270 270 270 269 268 268 268 267 267 269 269 268 268 268
284 282 285 285 283 277 280 288 291 292 288 289 287 288 289 290 291 290 292 290 289 289 290 291 289 287 288 290 292 290 292 290 288 289 289 289 290 290 289 290 290 290 289 289 288 287 287 286 285 285 285 285 285 284 284 283 282 282 281 281 281 281 281 281 281 279 278 277 276 275 273 271 270 269 269 269 268 268 268 268 268 267 266 267 267 267 267
280 282 284 281 276 280 286 283 284 287 293 292 289 290 290 290 291 291 290 288 288 290 291 292 292 291 290 290 290 289 289 290 290 290 289 289 288 289 289 289 288 288 289 289 288 287 287 286 286 285 285 285 284 283 283 282 282 281 281 281 281 281 281 280 279 279 278 276 275 273 272 270 269 269 268 268 268 268 268 268 267 267 267 266 266 265 264
282 279 282 276 278 283 283 282 281 284 287 289 289 288 289 290 290 290 289 290 289 290 290 290 290 290 289 288 287 287 288 290 291 290 289 289 289 288 288 288 288 288 288 289 288 288 288 287 286 286 285 285 284 284 283 282 282 281 281 281 281 281 280 279 278 278 277 275 274 272 271 270 269 269 268 268 268 268 267 267 266 266 266 266 266 265 264
278 280 281 282 285 284 281 281 282 283 284 286 287 284 288 292 292 290 289 290 289 288 288 286 283 284 286 287 287 285 287 288 289 290 289 289 288 288 288 288 288 288 288 288 287 287 287 287 286 285 285 285 284 283 282 282 282 281 281 280 280 281 280 279 279 278 277 275 273 272 270 269 268 268 268 267 267 267 266 268 267 266 265 265 264 264 263
283 279 278 278 279 278 282 281 285 285 284 290 291 288 284 288 290 291 291 291 290 288 285 284 283 285 285 283 286 288 286 287 288 286 287 287 287 287 286 286 286 286 286 286 286 287 286 285 285 285 285 284 284 282 282 282 281 280 280 280 281 281 280 279 279 278 277 275 274 272 270 270 269 269 269 268 267 267 267 266 267 265 264 263 262 263 263
281 280 278 278 277 279 281 280 281 283 285 288 287 284 280 285 286 289 290 291 289 288 284 282 284 285 282 284 287 286 286 286 286 285 284 284 284 284 285 285 285 284 285 286 285 285 285 284 284 284 284 284 283 282 282 281 281 280 280 281 281 281 280 280 279 277 276 275 274 272 271 271 270 269 269 268 267 266 266 265 265 264 264 263 261 261 262
282 280 279 277 281 279 281 279 281 281 282 288 286 276 277 286 284 285 288 289 288 286 286 284 285 285 283 285 286 282 283 285 286 285 283 282 282 282 282 282 282 282 283 283 283 283 284 284 283 283 283 283 282 282 281 281 280 280 281 281 281 281 281 279 278 276 275 275 274 273 272 270 269 269 268 266 266 266 265 265 264 263 262 262 262 262 262
282 282 280 281 281 284 282 280 280 281 283 287 279 275 283 283 282 281 287 287 286 286 284 285 285 286 285 284 281 280 282 283 282 282 281 281 281 281 281 282 283 282 282 283 283 283 282 282 282 282 282 282 282 281 280 280 280 281 281 281 281 281 279 278 276 275 275 274 274 273 272 270 269 268 267 267 265 264 264 263 263 262 262 261 261 261 261
280 282 279 280 282 285 282 280 282 281 285 277 277 283 280 282 281 283 285 285 285 285 285 285 286 282 279 280 280 280 280 281 280 280 281 280 280 279 281 281 281 281 280 280 281 281 281 282 282 282 282 282 281 280 280 280 281 282 281 280 280 278 278 277 276 275 274 273 272 271 269 268 267 266 265 265 264 263 263 262 262 261 260 260 260 260 261
281 280 279 278 275 283 281 282 282 284 281 283 283 280 280 282 282 283 285 285 285 285 284 284 281 279 279 279 279 279 279 279 279 279 279 279 279 280 279 280 280 280 280 280 280 280 280 280 280 281 281 281 280 280 279 281 282 281 279 278 278 278 277 276 275 274 272 271 270 269 267 267 267 265 264 263 262 262 262 261 261 260 259 259 259 260 260
277 279 276 278 284 281 283 286 282 282 285 284 282 283 280 281 281 282 282 283 284 284 284 283 279 279 279 278 278 278 278 278 278 278 279 278 278 278 279 279 280 279 279 279 279 278 278 279 279 280 281 280 279 279 280 282 278 276 277 277 277 276 276 275 273 271 270 268 267 266 266 265 265 264 262 261 261 261 261 261 260 259 259 259 259 259 260
282 281 282 281 282 284 283 282 282 285 285 283 283 283 282 280 280 281 281 281 280 282 282 281 279 279 278 278 279 278 278 278 278 278 278 279 279 278 279 279 279 279 280 279 278 276 276 276 277 278 279 279 278 278 280 278 278 277 277 276 276 275 274 273 271 269 267 266 265 264 264 265 264 263 261 260 260 260 260 260 260 260 260 261 260 260 261
284 282 283 282 281 283 281 281 283 283 281 281 281 282 281 282 280 281 280 279 279 279 279 281 279 279 278 279 279 278 278 278 278 278 278 278 278 278 278 278 278 277 277 277 276 275 274 274 275 275 276 277 278 279 277 275 276 275 275 274 274 274 273 271 269 267 265 263 262 262 262 263 264 263 262 261 261 261 260 260 261 261 262 262 262 262 262
283 279 280 281 282 282 281 281 282 280 280 281 280 281 282 281 281 280 278 279 280 280 280 280 280 279 278 278 278 278 278 278 278 278 278 278 279 279 279 279 278 277 275 276 276 274 274 272 273 273 274 275 278 276 272 274 274 274 273 274 273 271 271 269 266 266 265 264 262 261 261 261 262 262 262 261 262 262 261 261 261 262 262 262 262 262 262
281 279 278 278 278 279 281 282 281 281 281 280 280 280 279 279 278 279 279 280 280 279 279 278 278 278 278 278 278 278 278 278 278 278 278 278 278 278 278 276 276 274 275 276 276 275 276 275 274 273 274 275 276 273 271 272 271 272 272 273 273 272 270 268 266 265 265 264 262 261 261 261 262 262 262 262 262 263 262 263 262 263 263 263 263 263 262
277 276 278 278 278 280 280 280 280 282 282 280 279 278 278 278 278 278 278 278 278 278 278 277 277 278 278 278 278 278 278 278 278 279 279 279 279 278 278 276 276 277 276 276 276 276 277 277 275 273 273 274 272 273 271 268 270 272 272 269 269 267 266 266 264 264 264 263 262 261 260 260 261 262 262 262 263 263 263 265 265 265 264 264 264 264 264
277 278 277 278 277 276 279 280 282 281 281 281 280 279 279 279 278 277 277 278 278 277 277 279 278 279 278 278 278 278 278 279 278 278 278 278 278 277 277 276 275 275 275 276 276 276 277 274 274 274 273 273 270 270 269 266 269 271 270 268 267 267 266 266 264 263 263 262 262 262 261 260 260 260 265 267 265 263 263 268 271 272 270 266 265 265 264
277 280 280 281 282 281 281 283 282 282 282 281 280 280 279 278 278 278 277 277 277 277 278 278 279 278 279 279 278 278 278 278 279 279 278 278 277 278 276 276 275 275 276 275 273 273 275 272 274 274 273 270 269 268 269 268 268 268 268 268 267 266 265 265 265 263 263 262 262 262 261 261 260 261 259 264 270 271 270 269 271 272 273 273 272 271 266
279 281 281 281 281 280 281 281 282 282 282 282 281 280 279 279 279 278 278 278 278 277 277 277 278 279 278 278 278 278 278 277 278 278 277 277 278 278 276 277 276 274 273 272 274 275 274 273 274 272 270 268 269 269 268 267 268 268 268 269 268 267 266 265 265 264 263 263 262 262 261 262 261 261 261 260 262 269 272 272 271 272 272 273 273 273 272
279 281 281 281 280 281 281 281 280 281 281 282 281 280 279 279 279 279 279 279 278 279 278 278 277 278 278 277 278 277 278 277 277 277 278 278 278 277 275 274 274 275 276 275 274 273 272 271 270 270 270 267 267 267 267 267 267 268 267 268 268 267 266 265 264 264 263 263 262 262 262 261 261 261 261 262 262 262 267 273 273 273 273 273 273 274 274
282 280 280 279 278 278 279 278 279 279 279 281 280 279 281 281 280 280 279 279 279 279 278 278 277 277 278 277 277 276 277 277 277 278 277 275 275 275 274 275 276 275 275 274 274 273 271 270 271 268 269 266 266 266 265 266 266 267 267 267 267 267 266 265 264 263 263 263 262 262 262 262 261 261 261 262 262 262 262 263 268 271 273 274 274 274 274
280 280 280 279 278 278 278 280 279 277 277 278 279 279 279 279 280 279 277 277 277 277 279 278 278 277 276 276 276 275 277 276 276 276 275 274 274 276 276 275 273 272 271 271 270 270 271 269 268 268 268 265 263 264 264 265 265 265 265 265 264 264 264 264 264 263 263 263 262 262 261 261 261 261 261 261 261 261 261 262 262 263 262 265 270 273 271
280 280 282 279 278 279 278 278 279 277 277 277 278 278 276 276 276 276 274 276 276 275 276 275 276 275 275 275 274 274 275 274 275 273 273 275 276 274 273 272 271 271 270 269 268 267 268 267 267 267 266 261 260 262 262 263 263 264 264 264 264 264 262 264 263 263 262 262 262 262 261 261 260 260 260 260 260 260 260 259 260 259 260 261 262 266 269
279 279 279 280 280 279 278 277 277 277 277 277 276 275 275 276 275 276 275 275 276 276 276 274 273 273 275 274 274 273 273 272 272 274 275 275 273 272 272 271 269 268 269 268 266 266 265 265 265 265 262 258 259 259 260 261 262 263 262 262 263 262 262 261 261 262 261 261 260 261 262 260 260 259 259 259 259 259 259 259 259 259 259 260 261 260 263
278 278 278 279 277 277 277 275 277 276 276 276 276 275 274 276 275 275 275 275 275 276 275 276 275 273 273 272 272 274 274 273 274 272 272 271 270 270 267 263 263 266 265 264 265 263 265 264 265 264 261 257 259 259 259 260 261 260 261 262 261 261 261 260 260 260 259 259 260 263 260 259 259 259 259 259 259 259 259 258 259 259 259 259 261 259 259
275 276 276 277 276 276 276 276 276 276 276 274 275 275 275 274 274 275 274 275 276 275 274 276 275 275 273 273 272 272 272 271 271 271 268 265 264 264 263 266 270 271 272 269 265 263 263 261 261 261 258 257 257 257 258 259 259 259 259 260 258 263 264 264 263 260 259 259 260 259 258 259 258 258 258 258 258 258 258 258 258 258 258 258 258 258 259
275 274 273 275 275 274 274 274 274 275 276 275 273 273 273 273 272 274 274 273 273 273 274 273 273 274 274 271 271 271 270 270 270 269 266 262 262 261 261 262 263 262 259 259 259 260 261 260 260 257 255 256 256 256 258 259 258 259 259 259 259 259 263 264 262 262 259 258 258 258 258 258 258 257 257 256 257 257 258 258 258 258 258 258 257 257 257
274 271 272 272 272 272 272 272 274 273 273 273 275 276 275 274 274 273 272 273 273 273 273 273 272 271 271 271 271 270 269 268 266 265 265 264 262 258 258 258 258 258 258 257 258 258 259 259 257 254 255 255 255 256 257 258 259 258 258 258 258 260 261 263 262 260 259 258 258 258 258 258 257 257 256 257 258 258 258 258 257 257 257 255 255 253 255
277 277 277 277 277 276 275 275 274 274 272 274 273 273 273 273 273 272 272 272 272 272 272 271 271 270 271 270 269 268 267 268 269 269 266 264 261 256 256 255 254 254 255 257 258 258 258 256 254 254 255 255 256 257 257 258 258 258 258 258 259 259 260 260 261 259 258 258 258 259 258 258 258 258 258 257 257 257 257 256 255 255 254 253 252 251 257
280 280 279 278 278 278 277 277 276 275 274 273 272 272 273 272 271 271 270 270 270 270 270 269 268 268 267 266 267 266 265 267 267 266 262 260 258 256 256 253 254 254 253 254 256 255 255 254 252 253 254 255 256 256 257 257 257 258 258 260 260 260 260 260 260 259 258 258 257 257 258 258 258 258 257 257 256 255 254 254 253 253 252 252 252 252 253
276 275 273 272 272 272 272 271 272 274 274 274 274 273 271 269 269 268 268 267 265 265 264 264 265 265 265 266 265 264 264 263 263 263 259 256 256 256 255 254 254 254 253 253 252 252 252 253 257 257 256 256 256 256 257 256 257 259 259 260 259 259 258 258 257 257 257 258 258 258 258 257 257 256 255 254 253 253 252 252 252 252 252 251 251 251 250
266 272 270 269 266 267 265 263 262 266 269 268 268 267 265 261 259 257 258 259 260 260 260 260 263 264 265 263 261 259 259 259 259 259 257 256 256 255 254 254 254 254 255 255 252 251 251 253 257 257 255 254 254 253 256 258 257 258 259 259 259 258 257 257 257 258 257 257 257 256 256 255 254 253 254 253 252 252 252 251 251 251 251 251 250 250 251
261 261 262 262 261 259 257 257 257 261 265 262 259 258 258 257 257 255 256 256 255 256 257 258 260 259 258 258 257 256 256 256 255 254 253 254 255 255 254 254 254 254 254 252 251 251 251 254 257 255 253 253 252 253 255 258 258 259 259 258 258 257 257 256 256 256 255 255 254 254 253 253 252 252 252 251 251 251 251 251 251 251 250 250 250 250 250
260 260 260 260 259 257 256 255 254 253 255 258 256 255 255 255 255 254 255 255 254 255 256 257 257 258 259 259 254 252 252 252 252 252 253 253 253 253 251 248 248 249 250 251 250 251 253 254 253 253 252 252 253 256 256 257 257 258 258 258 258 257 257 256 256 255 254 254 253 252 252 252 252 251 250 250 250 250 251 251 250 251 250 249 249 249 249
257 256 256 258 258 257 255 253 251 251 251 251 252 252 252 253 254 255 255 255 255 254 254 255 257 258 255 254 253 251 249 250 250 251 252 252 253 251 251 250 248 249 251 254 251 251 254 256 253 252 252 254 255 255 255 256 256 257 257 257 257 256 256 255 255 254 254 253 253 253 252 252 252 251 250 250 250 250 249 249 249 249 249 249 248 249 249
255 255 256 256 256 256 255 254 252 251 250 250 250 251 252 251 253 255 254 254 253 253 252 253 254 255 252 251 250 249 249 250 250 250 251 252 253 253 253 250 248 247 248 250 250 251 253 254 253 254 254 255 255 255 255 255 256 256 256 256 256 255 255 255 254 254 254 253 253 253 252 252 252 251 250 250 250 249 249 249 249 249 248 249 248 249 249
253 254 254 254 254 254 254 254 253 252 250 250 250 250 251 252 253 253 253 252 251 251 252 252 253 251 250 250 250 250 249 248 249 248 249 251 249 251 252 249 249 248 253 253 253 252 251 251 254 255 255 255 255 254 255 255 256 256 256 255 255 255 255 254 254 254 254 253 253 253 252 252 252 251 250 250 249 249 249 249 248 248 248 248 249 249 249
252 252 252 252 252 252 253 253 253 251 251 251 249 249 250 250 251 251 251 251 251 251 251 250 251 251 251 250 250 250 249 247 249 249 249 247 246 247 249 249 247 248 254 253 251 251 253 253 254 254 255 254 254 255 255 255 255 255 255 255 254 254 254 254 254 254 254 253 253 252 251 251 250 250 250 250 250 249 249 249 249 249 249 249 249 249 249
251 252 252 252 253 254 254 254 254 253 251 250 250 249 250 250 250 250 250 250 251 251 250 250 250 250 250 250 251 251 250 249 249 250 251 249 250 249 248 249 248 251 255 253 255 255 255 255 254 254 254 254 254 255 256 255 255 255 254 254 253 253 253 254 253 253 253 253 252 252 252 251 251 250 249 250 249 249 249 249 249 249 249 249 249 250 250
251 251 252 252 252 253 253 253 252 251 251 250 250 249 249 249 249 249 250 250 250 250 251 251 251 250 249 249 250 249 249 248 248 249 251 251 251 249 250 252 251 252 253 255 255 255 255 255 254 254 254 255 255 255 257 256 256 255 255 253 253 253 253 253 253 253 253 252 252 252 252 251 251 251 250 251 251 251 250 250 250 250 250 250 249 250 250
251 251 251 251 251 251 251 251 252 252 252 252 251 250 249 249 248 248 248 247 247 247 247 249 249 249 249 247 247 247 247 248 249 247 248 248 250 250 251 253 252 253 255 255 254 254 254 254 255 255 255 255 255 255 256 257 256 256 255 254 253 253 253 253 253 253 252 252 252 252 252 252 251 251 251 251 251 251 251 251 251 249 250 250 249 250 250
250 250 250 250 250 250 251 252 253 253 253 252 251 250 249 248 249 248 247 247 247 246 246 245 245 244 244 245 247 248 250 250 249 249 248 249 251 252 253 254 255 255 254 252 252 252 252 252 255 255 255 255 255 254 255 255 256 256 254 254 253 253 253 253 253 252 252 252 252 252 253 252 251 251 251 252 251 251 250 250 250 250 250 250 250 250 250
250 249 249 249 249 250 251 251 251 250 249 249 248 248 247 247 248 247 247 248 248 247 247 245 246 245 246 246 248 249 249 250 250 249 248 247 248 248 248 248 251 254 255 255 255 255 255 255 255 255 255 255 254 254 255 255 255 255 254 254 253 253 252 253 253 252 253 252 252 251 251 251 251 250 250 251 251 250 250 250 250 250 249 250 250 250 249
249 249 250 250 250 251 252 252 251 250 249 247 247 248 247 247 247 249 248 248 247 249 249 247 246 246 246 248 248 249 249 249 249 248 249 248 248 248 249 252 254 255 254 253 251 252 255 255 255 256 256 255 254 254 254 254 254 254 254 254 254 254 253 253 253 253 253 252 252 251 251 251 251 250 251 251 250 250 250 250 250 250 249 249 250 250 250
250 250 250 249 248 249 250 251 250 249 247 248 249 249 248 249 251 251 250 250 251 251 250 250 250 249 248 248 248 247 246 247 251 250 248 248 249 249 250 250 252 254 254 252 252 252 254 255 255 255 255 255 255 256 256 256 255 255 254 254 254 254 254 254 254 254 252 252 251 251 251 251 251 251 251 250 250 250 250 250 249 251 252 252 251 250 250
249 249 248 248 248 247 246 248 249 249 248 249 249 251 251 252 252 251 251 251 250 252 251 250 250 250 249 248 248 247 247 247 249 253 251 249 251 254 254 254 254 254 255 255 254 254 254 254 253 254 254 255 255 256 256 255 255 255 255 254 254 254 254 254 253 253 252 252 252 251 252 251 251 251 250 250 250 250 250 250 250 250 250 250 250 250 250
249 249 249 250 250 249 250 249 248 250 249 250 250 251 251 251 251 251 251 255 251 251 250 250 250 251 250 249 250 248 248 249 250 251 254 253 254 254 254 255 254 254 253 253 255 255 255 255 256 255 255 255 255 254 254 254 254 253 253 254 253 254 253 253 253 252 252 253 252 252 252 251 250 250 250 250 250 250 250 250 250 250 250 250 251 251 251
Wind_Speed
18 6 4 4 3 4 5 13 14 16 17 15 19 21 18 8 13 22 5 14 15 12 10 11 10 9 10 11 12 11 7 5 6 9 10 10 10 9 13 15 16 16 15 16 16 16 16 14 14 14 13 12 11 10 10 11 11 12 11 11 11 11 10 11 10 9 8 7 8 8 8 8 9 8 7 6 5 5 4 3 4 3 3 3 2 3 3
14 14 12 4 4 3 1 5 12 15 18 22 23 23 21 17 16 20 6 6 10 3 7 11 11 8 8 4 5 7 9 9 9 9 9 10 10 12 14 16 17 17 17 15 15 14 13 16 16 14 14 14 14 14 13 12 12 11 11 11 12 11 11 11 9 9 9 8 8 8 9 9 9 8 8 7 7 5 4 3 3 3 3 2 3 3 3
14 14 11 7 6 4 9 7 7 12 16 18 20 20 19 16 18 22 13 9 16 4 2 5 1 4 7 7 8 8 7 9 9 9 9 9 10 12 13 13 14 13 13 13 12 13 15 17 18 17 15 14 12 12 13 14 13 13 12 12 12 12 11 9 9 9 9 8 9 9 8 8 7 8 8 7 6 5 4 4 4 3 3 4 3 3 3
14 9 10 10 4 2 7 14 16 16 8 10 15 17 16 14 21 21 16 15 18 3 4 4 3 4 7 8 7 7 7 7 8 8 9 10 11 12 13 13 12 12 13 15 16 18 18 18 17 15 14 14 15 15 15 15 14 12 12 12 13 12 11 10 10 11 10 10 10 9 8 8 8 7 7 7 6 5 5 4 4 4 4 4 4 3 3
15 3 9 8 5 1 7 19 29 17 11 12 12 13 14 18 17 13 15 21 11 7 6 7 1 2 3 4 5 4 4 6 9 10 11 12 11 13 12 11 13 15 17 18 19 18 15 14 15 17 16 14 16 16 16 15 13 13 13 13 12 12 11 12 12 12 11 12 10 9 9 8 8 7 8 7 6 6 7 5 4 5 6 5 4 3 4
4 2 5 6 6 10 17 6 3 14 18 19 15 18 19 15 14 15 12 5 3 7 7 10 8 6 5 5 7 4 7 8 7 8 10 12 12 10 9 11 13 13 11 10 12 13 14 14 14 12 13 15 13 11 11 10 13 13 13 12 12 12 12 12 12 11 12 11 10 10 8 8 8 8 8 8 6 5 5 5 6 4 4 5 5 4 4
5 4 8 5 12 18 1 5 5 2 16 18 21 18 11 14 14 12 11 4 6 6 6 6 5 4 4 2 4 3 4 8 10 12 12 9 8 10 10 10 9 10 11 11 10 10 12 13 12 12 12 12 11 11 12 13 12 13 13 12 12 12 13 11 11 10 12 10 10 9 9 9 8 8 8 7 7 7 7 7 7 7 7 6 5 4 4
3 4 8 7 8 1 2 3 3 2 2 6 8 13 13 10 12 13 14 13 5 5 4 2 1 4 4 1 2 3 5 8 10 8 7 8 9 9 8 9 10 11 12 13 13 13 9 10 11 13 13 11 12 13 11 12 12 12 13 13 13 12 11 10 12 12 12 11 10 9 10 9 9 9 8 9 9 7 6 5 4 4 4 5 5 5 4
8 5 11 11 5 5 2 1 1 5 5 7 11 11 14 14 10 9 9 10 6 5 5 5 3 3 2 2 7 2 5 4 3 5 6 6 6 6 6 8 8 7 6 7 7 7 9 11 12 12 11 12 12 11 12 12 12 11 11 12 13 13 12 13 14 13 13 12 11 11 11 11 10 10 10 8 7 6 6 7 7 7 7 5 4 5 4
6 5 4 3 3 13 5 4 4 1 2 4 6 5 5 1 7 8 10 11 8 6 4 5 4 4 1 5 8 7 5 4 4 2 3 3 4 4 4 3 4 5 5 5 6 9 9 10 11 11 11 12 12 12 12 11 11 11 11 14 14 13 13 12 13 13 13 13 13 12 11 13 12 10 8 5 7 8 9 9 8 7 5 4 4 4 5
6 3 6 7 9 4 4 3 1 1 1 7 5 4 6 2 2 6 8 11 7 7 8 5 5 5 5 9 8 3 7 5 4 5 3 4 4 4 5 7 6 5 6 7 7 7 9 9 8 9 10 12 11 11 10 10 11 11 14 14 13 13 14 13 13 12 11 12 12 13 13 13 11 11 11 10 7 7 6 5 6 5 5 5 4 4 4
4 6 5 8 2 1 2 4 1 2 0 6 5 3 6 1 4 2 3 7 4 6 7 9 8 8 8 9 3 1 2 4 4 5 6 5 5 4 4 4 5 5 6 6 6 8 9 9 7 9 9 10 10 10 9 9 10 13 14 14 12 11 12 11 10 10 10 12 12 13 13 10 9 9 7 7 8 8 6 6 6 6 4 5 5 5 5
5 6 4 2 3 1 1 4 3 2 1 3 5 7 3 2 1 1 2 2 3 6 8 8 7 6 2 2 3 3 5 7 4 4 4 4 5 5 5 5 6 5 5 7 8 8 6 7 7 8 8 9 9 8 8 9 12 13 12 11 11 12 9 8 9 10 10 12 13 11 10 10 9 8 8 8 8 8 7 6 6 5 5 4 5 5 5
6 4 4 4 2 2 4 1 4 3 4 4 7 1 0 4 4 1 2 4 4 6 9 7 4 3 3 4 4 4 4 5 5 5 6 6 5 3 3 5 5 5 4 4 5 5 5 8 8 8 9 9 8 8 8 11 13 13 11 9 8 7 9 10 10 10 10 9 8 9 7 9 9 8 6 7 7 8 6 6 7 7 5 4 5 5 5
2 1 4 1 6 2 5 7 3 2 5 4 4 4 2 1 4 4 1 4 4 6 5 3 4 5 4 5 5 5 5 5 5 5 5 6 6 6 4 3 3 5 5 5 5 5 4 6 6 6 9 10 8 8 11 14 13 8 6 6 7 8 8 9 10 10 9 10 9 8 8 9 10 9 8 8 7 7 7 6 7 7 6 4 4 6 6
5 7 7 6 4 6 7 10 8 5 4 2 6 7 4 2 3 4 3 2 5 5 6 6 4 4 6 4 5 5 5 4 4 4 4 4 4 3 2 4 5 5 5 4 5 4 4 5 5 6 10 10 8 9 13 13 5 5 5 6 7 8 9 9 8 8 8 8 7 7 9 9 9 9 8 7 7 7 7 7 7 7 5 5 5 6 7
6 5 3 2 2 8 6 1 1 3 3 3 1 4 7 7 3 3 4 5 4 5 5 5 6 3 2 4 4 5 4 5 5 5 5 5 5 5 5 4 4 4 6 7 6 5 4 5 5 6 6 10 9 11 11 5 6 8 7 7 8 8 8 8 8 7 6 7 7 7 8 9 10 9 8 8 8 6 7 6 7 7 7 7 8 7 7
2 2 2 3 2 6 3 1 1 4 4 1 3 6 4 2 4 6 5 4 4 4 5 7 2 4 4 5 3 4 4 4 4 3 3 3 4 4 4 3 5 4 4 5 6 6 4 5 5 5 6 7 10 12 3 5 5 6 7 7 8 9 7 7 7 8 8 6 6 6 7 7 8 8 10 10 9 8 7 7 7 8 7 8 7 7 7
6 6 3 4 7 5 3 3 1 3 2 2 1 3 3 4 5 4 3 5 5 5 5 5 5 5 5 5 3 3 4 4 5 5 5 4 5 7 7 6 6 5 5 5 5 5 6 5 5 5 6 7 9 2 3 5 6 6 7 8 7 6 7 7 6 8 10 8 7 6 6 6 6 7 7 8 8 9 9 9 8 8 7 7 7 7 7
4 1 4 1 1 1 1 3 5 3 2 1 1 3 3 4 4 4 4 6 5 4 4 5 6 5 5 6 5 4 4 5 5 5 5 6 4 5 3 4 5 5 5 6 6 6 7 7 6 6 7 9 8 4 2 5 5 6 7 8 9 9 9 8 8 8 8 9 10 8 7 8 9 8 7 8 10 11 12 12 10 8 8 8 9 9 8
2 3 0 0 3 1 3 3 3 2 4 4 3 4 4 4 6 5 4 3 5 5 6 4 5 5 5 6 6 6 4 4 4 6 6 6 7 5 5 5 7 9 8 8 8 8 9 6 7 7 8 8 5 5 4 4 6 6 7 5 5 5 5 6 7 6 7 8 8 8 7 7 6 7 9 10 10 6 4 5 8 9 9 9 9 8 7
5 8 7 7 6 3 5 7 9 7 4 5 5 4 4 4 5 5 5 3 3 4 5 6 5 6 5 5 5 5 6 6 5 4 4 4 5 5 4 4 5 5 6 8 8 8 8 5 6 7 7 6 4 4 4 4 5 7 6 6 5 6 6 7 6 7 7 7 7 8 8 8 7 5 6 10 7 7 6 9 14 12 9 8 7 6 7
5 3 10 8 4 4 7 11 9 7 6 6 6 7 6 5 5 5 5 5 3 3 1 4 6 5 6 5 5 4 3 4 5 5 5 5 4 5 4 5 5 7 7 6 5 6 6 4 5 6 6 4 4 5 6 6 6 5 6 7 6 6 7 7 8 8 7 7 7 7 7 7 7 7 5 7 15 16 12 11 12 15 15 13 12 12 9
1 3 11 9 6 6 3 5 7 8 8 9 8 6 5 6 6 5 5 5 5 4 4 4 4 5 5 4 4 5 4 3 3 4 4 5 4 3 4 6 6 6 5 5 7 9 4 4 5 4 4 4 5 6 6 7 7 7 7 8 8 8 8 6 7 7 7 7 7 8 7 7 8 7 7 7 6 12 17 15 15 16 15 15 14 14 14
4 3 7 7 5 5 3 5 5 6 6 8 7 7 6 5 5 6 5 4 4 5 4 4 4 4 5 4 4 4 5 4 4 5 5 3 2 2 4 5 6 7 8 8 6 5 3 3 4 4 4 4 4 6 7 7 8 8 8 8 8 7 7 8 7 8 8 8 8 8 8 8 8 8 8 8 9 7 8 16 18 16 15 14 15 15 15
7 4 4 3 4 4 1 3 1 2 5 6 4 3 5 7 6 5 5 5 4 4 5 4 4 5 5 5 4 4 2 4 5 2 2 3 2 2 4 6 7 5 6 5 6 5 5 5 5 5 5 4 5 6 6 7 8 8 8 9 8 7 8 9 9 8 8 8 8 8 7 7 7 7 7 7 6 6 6 4 7 10 13 14 14 14 14
7 8 9 6 3 2 3 10 7 5 5 4 5 5 4 5 6 5 3 4 4 5 6 5 4 4 4 5 5 4 5 3 0 2 3 3 4 7 7 5 4 5 5 4 4 5 5 5 4 5 5 5 5 5 6 7 7 7 7 7 6 7 10 9 8 8 7 7 7 7 7 7 7 7 7 5 6 6 7 7 8 7 4 3 7 11 9
9 7 11 8 8 9 6 7 1 5 6 5 5 5 5 6 5 5 4 3 1 1 1 2 3 3 4 3 4 3 1 2 4 3 2 6 7 4 1 2 4 4 4 4 5 3 3 4 4 5 5 2 4 4 5 6 6 6 6 6 6 6 5 7 7 6 7 7 6 7 7 7 6 6 6 6 6 6 4 3 4 3 2 2 1 3 6
7 7 5 4 5 5 2 3 3 4 3 2 4 4 5 3 1 1 2 2 1 1 1 3 4 5 4 4 4 4 4 4 5 6 7 5 2 2 2 1 1 1 1 1 2 2 4 5 4 5 4 2 3 4 5 6 6 6 6 6 6 6 5 5 5 6 6 6 5 6 5 6 6 6 5 5 5 4 5 5 4 3 4 2 1 3 4
4 4 3 2 3 4 5 4 5 5 4 5 6 3 4 4 3 4 3 1 1 2 4 1 2 2 4 3 4 5 6 6 6 4 4 4 4 2 2 3 2 0 1 2 5 4 5 5 5 5 5 3 3 4 5 5 5 4 5 5 5 6 5 5 5 5 5 5 5 6 6 5 5 5 5 5 5 5 5 4 4 4 3 2 3 4 5
5 4 6 4 4 3 5 5 5 5 5 5 5 5 1 2 3 3 3 2 1 3 3 1 1 0 1 4 5 4 4 3 3 2 1 2 2 2 3 4 4 7 6 4 2 4 5 4 3 2 1 4 3 4 4 4 4 4 4 4 4 6 9 8 6 5 5 5 6 6 5 5 5 6 6 5 4 4 4 3 3 3 3 3 4 4 4
6 6 6 3 3 4 4 2 4 4 5 5 4 4 5 5 5 6 5 4 5 3 1 1 1 4 5 2 1 2 2 1 1 0 1 1 1 1 1 1 2 4 3 3 4 2 0 1 1 0 1 2 3 3 4 4 4 5 5 5 5 4 7 9 6 6 6 7 5 5 6 5 5 4 4 5 4 4 4 4 4 4 3 4 4 4 3
7 3 1 2 1 2 5 4 5 6 5 5 7 6 5 5 4 3 4 4 3 2 2 4 4 2 1 0 1 1 1 0 0 0 0 1 0 1 2 3 3 3 3 3 2 2 1 0 1 2 2 2 3 3 3 4 4 5 5 5 5 5 5 6 6 6 5 5 5 5 4 4 4 5 4 4 4 3 3 4 3 3 4 4 4 3 3
12 11 12 11 12 10 10 10 6 5 5 4 4 3 3 4 5 4 4 3 2 2 4 3 1 0 0 0 0 0 0 0 3 3 1 2 1 2 2 3 3 3 3 3 4 4 4 3 3 2 2 3 3 3 3 3 4 5 4 5 5 5 5 5 6 5 5 5 5 5 4 4 4 4 3 4 4 3 3 3 3 3 3 2 2 3 6
12 11 10 9 9 9 9 9 7 7 7 6 5 5 5 4 4 4 2 3 3 3 1 1 1 1 1 0 0 0 1 2 3 1 1 1 2 3 3 3 3 3 3 4 4 4 3 4 3 3 3 3 3 3 3 3 4 5 4 5 5 5 4 4 5 5 5 5 5 5 4 4 3 3 3 4 4 4 3 4 3 2 2 3 4 3 4
7 6 3 4 5 5 4 4 4 7 7 8 8 7 4 2 2 2 2 1 3 4 4 3 3 1 1 0 0 1 2 2 1 0 1 2 3 3 3 3 2 2 2 2 3 3 3 3 5 5 3 3 3 3 3 3 4 4 4 5 5 4 4 4 5 5 5 5 5 4 4 4 4 4 4 4 3 3 3 2 3 2 3 4 4 4 4
3 4 5 5 4 6 6 6 4 3 4 4 4 5 6 6 5 3 3 4 5 5 4 3 2 1 1 1 2 4 5 4 4 3 3 3 3 4 4 3 3 1 1 1 2 3 3 3 5 6 4 4 4 3 3 6 4 4 4 4 4 5 5 5 4 5 4 4 4 4 4 4 4 3 4 3 3 3 3 3 4 4 4 4 4 4 5
7 8 7 7 6 9 9 6 6 6 7 8 7 7 6 4 4 3 4 4 4 4 3 2 2 2 3 4 5 5 4 5 5 4 4 4 4 6 5 4 4 2 2 1 1 2 2 3 6 5 5 4 3 3 3 6 5 3 3 3 4 4 4 4 4 3 4 4 4 5 5 4 4 3 3 3 3 3 4 4 4 5 5 4 3 3 5
8 7 8 6 7 7 6 6 8 9 8 8 6 5 4 3 3 4 5 5 4 3 3 3 1 3 3 4 4 4 5 4 3 4 4 4 4 7 5 3 1 1 0 0 3 3 2 2 5 5 4 4 3 4 4 4 4 3 3 3 3 4 4 3 4 4 4 4 4 4 4 4 4 3 3 4 4 4 5 5 3 5 3 3 3 5 5
6 7 6 5 7 6 7 8 8 8 6 6 6 5 4 4 5 5 4 5 5 3 3 3 3 4 3 4 4 4 3 3 3 4 4 4 7 8 6 4 3 4 3 5 4 3 3 5 5 4 3 3 3 3 2 3 3 2 3 3 3 3 3 3 4 4 4 4 4 4 4 4 3 4 3 3 2 4 4 4 3 4 3 4 5 5 5
5 5 5 6 5 5 5 8 8 8 7 7 7 4 3 2 1 4 5 4 4 4 5 4 5 6 5 6 6 4 3 3 4 4 3 4 4 5 5 1 1 3 3 4 3 2 3 3 3 3 3 3 3 3 3 2 3 2 2 2 3 4 4 3 3 3 3 4 4 4 4 4 4 4 4 3 4 3 3 4 4 5 4 5 6 5 4
4 4 5 6 6 5 5 6 6 8 7 6 4 3 4 3 5 7 5 4 5 6 7 8 8 7 6 6 6 5 5 4 5 6 6 5 2 2 6 1 1 1 3 5 3 3 3 4 4 3 3 3 3 4 3 1 2 2 2 2 3 3 3 3 3 3 3 3 4 4 4 4 5 5 4 5 4 4 4 4 5 5 5 5 6 6 6
5 5 5 6 6 5 5 6 7 7 6 6 5 5 5 5 6 5 5 6 6 6 7 6 6 7 6 6 7 7 5 4 5 5 6 4 2 1 3 4 3 1 3 3 2 3 3 3 4 3 4 4 4 5 4 3 3 2 2 2 2 2 2 2 2 2 3 3 4 4 5 5 4 5 4 4 5 5 5 5 6 6 5 6 6 5 5
4 5 5 5 6 4 4 5 6 7 9 7 5 5 6 6 6 6 6 7 7 6 6 6 5 5 5 5 6 6 4 3 3 3 7 4 5 5 4 4 3 2 4 3 3 3 3 3 3 4 7 8 7 4 3 3 3 2 2 2 1 2 2 2 2 3 3 4 4 4 4 4 4 4 3 5 5 5 5 5 6 6 6 6 6 6 6
5 4 5 5 4 5 5 5 7 8 6 4 4 7 7 8 8 7 6 6 6 5 4 6 5 6 5 5 5 4 4 3 1 0 4 3 5 1 0 1 2 2 2 3 3 3 3 3 5 6 5 6 5 3 2 3 2 2 2 2 2 2 3 3 3 3 3 3 3 3 4 4 4 5 5 6 6 5 6 6 6 6 6 5 6 6 6
5 5 4 5 7 6 5 6 5 5 6 6 10 10 9 7 6 6 5 6 7 6 4 5 5 5 5 4 4 4 4 4 5 5 4 1 2 2 2 2 2 1 2 3 3 3 4 7 8 7 7 6 4 1 1 2 2 3 3 3 3 3 3 3 3 4 4 3 4 4 4 4 4 5 5 5 6 6 6 7 7 5 6 6 5 6 6
5 5 6 6 5 3 3 3 3 5 6 9 10 8 6 5 5 5 5 6 6 5 5 4 4 3 2 3 3 3 3 5 4 5 5 4 5 4 4 4 4 3 2 2 3 2 3 3 5 6 6 5 5 1 1 1 1 2 3 3 3 4 4 4 3 4 4 3 5 5 5 6 6 6 6 5 6 6 5 5 6 5 5 6 5 6 6
5 6 5 5 5 4 5 6 9 10 10 9 6 5 3 3 4 5 5 5 6 5 5 3 3 3 4 4 3 3 2 2 5 4 3 4 3 3 3 2 2 2 2 3 3 3 5 5 4 5 5 4 3 1 0 1 2 2 2 3 3 4 3 4 4 4 4 4 4 5 5 5 5 5 5 6 6 6 6 5 5 5 5 5 6 6 5
3 5 4 5 5 7 8 9 9 8 6 3 4 2 1 2 4 4 4 5 6 5 5 4 5 4 3 4 3 4 3 3 2 3 1 2 3 3 2 1 2 2 2 1 1 1 3 3 3 3 3 3 1 2 2 2 2 3 3 4 3 3 3 4 4 4 5 5 6 6 5 6 6 6 6 6 6 6 6 6 5 5 5 6 6 7 6
3 5 7 7 7 7 6 7 6 5 3 4 3 1 0 2 5 4 2 3 4 5 5 6 5 4 4 4 5 4 4 4 5 5 4 3 2 2 1 1 0 2 2 0 0 1 3 3 3 3 3 2 2 2 2 3 3 4 4 4 4 4 4 5 5 6 6 6 5 6 6 6 6 6 7 6 6 5 5 5 5 7 8 7 7 6 6
5 6 6 7 6 5 5 6 5 5 3 2 1 2 4 5 5 4 3 4 4 5 6 5 5 5 5 4 5 4 4 4 4 3 2 1 1 2 1 1 0 1 1 1 1 2 2 2 2 3 3 2 3 2 3 3 3 4 4 4 4 5 5 5 5 5 5 6 5 5 6 6 6 6 6 5 5 5 6 6 6 6 6 6 6 6 6
7 5 4 5 6 5 5 5 3 4 3 3 3 3 3 4 5 5 5 5 6 6 4 5 5 5 4 4 4 3 3 2 2 1 1 0 0 0 2 1 1 2 1 2 2 1 2 1 2 3 3 2 3 3 4 4 4 4 4 4 4 5 5 6 6 5 5 6 6 6 6 6 6 6 6 5 5 6 6 6 6 6 6 6 6 6 6
Wind_Direction
236 199 189 166 190 202 197 203 200 195 201 194 204 221 228 146 206 238 209 163 224 233 191 213 206 189 194 195 188 183 166 135 129 138 154 166 171 168 174 184 187 190 190 191 189 185 185 178 180 180 177 179 178 177 176 174 170 174 166 164 167 168 168 170 171 165 159 154 149 147 148 145 142 143 144 142 138 139 153 164 144 150 156 153 190 189 181
238 237 228 151 171 200 233 222 212 205 198 203 205 218 220 211 230 239 201 197 240 231 204 196 203 195 185 143 111 128 144 159 156 157 162 170 174 180 188 191 194 195 194 192 189 185 182 183 183 181 181 182 181 177 176 176 175 173 164 171 170 173 174 174 167 162 156 150 149 148 150 153 152 149 147 147 145 151 161 152 146 154 169 190 189 203 185
245 236 234 219 204 178 231 235 242 227 214 209 208 218 223 223 244 251 246 264 262 242 140 155 75 106 99 110 127 147 154 153 156 160 173 179 187 193 197 199 199 197 195 193 188 187 190 188 187 185 183 180 175 176 179 179 177 175 170 172 177 176 176 170 163 152 148 150 149 159 161 151 151 151 150 147 149 155 162 154 167 163 168 205 198 204 183
251 225 200 218 163 185 246 254 239 229 198 198 216 219 215 204 223 233 239 243 246 136 115 70 60 114 139 147 149 150 157 160 151 166 186 187 196 200 201 201 196 192 194 192 190 193 193 192 188 183 179 179 179 185 181 180 179 171 173 177 177 178 172 165 160 158 157 154 160 165 159 161 161 156 146 146 155 161 162 163 174 167 200 207 206 191 170
239 265 171 185 125 261 295 251 240 215 198 220 223 228 219 215 214 223 224 234 225 186 162 133 193 138 146 137 164 138 136 164 172 183 192 198 202 205 200 195 196 197 197 197 196 196 191 187 187 190 183 178 186 186 182 182 169 174 178 177 176 175 175 171 167 164 160 163 168 169 169 163 158 151 150 153 158 166 181 179 171 184 205 203 201 188 171
253 74 141 110 167 212 229 263 23 174 196 202 209 220 215 216 199 221 228 243 116 144 159 177 190 169 205 187 222 183 170 172 191 206 203 204 203 201 199 199 201 202 198 199 197 192 190 190 190 185 183 190 189 180 176 167 173 178 175 179 177 178 177 177 170 164 162 167 173 172 163 159 158 157 159 173 171 167 166 173 183 189 205 202 194 191 182
214 137 123 170 216 228 327 313 304 241 196 197 211 228 212 214 221 238 253 215 161 185 183 184 190 204 237 225 216 220 177 170 184 198 207 203 193 194 194 195 194 192 193 193 186 183 187 184 178 174 184 186 176 172 175 178 181 178 180 176 179 180 182 175 164 164 167 172 172 167 164 163 164 166 169 165 167 175 179 186 183 191 197 192 199 186 182
52 150 174 214 227 285 295 328 311 333 82 209 208 245 240 219 210 214 231 238 195 181 201 208 206 199 207 235 250 197 202 184 195 194 196 202 194 197 192 185 192 189 191 190 188 190 175 166 175 181 185 174 173 182 173 178 179 182 178 180 184 182 176 168 170 172 172 175 171 167 165 168 172 174 174 178 177 175 175 187 189 183 203 186 196 185 174
189 187 202 230 5 308 100 26 215 166 161 157 179 211 244 221 205 192 222 237 222 173 190 158 98 78 67 293 278 245 209 223 195 184 206 190 195 188 193 186 195 190 180 177 179 159 162 173 174 183 172 171 176 172 176 183 178 180 179 184 187 184 179 176 178 177 176 174 174 171 170 173 181 180 176 181 177 166 174 187 185 191 195 191 185 177 182
152 150 184 320 258 247 244 209 241 43 302 171 171 162 294 306 188 187 198 229 220 181 147 126 123 81 90 279 260 246 229 187 160 83 101 120 138 139 133 123 136 148 159 152 158 160 166 174 178 172 171 172 171 175 182 177 173 178 182 192 191 185 184 181 182 180 180 176 174 173 173 184 186 185 178 171 175 175 180 183 189 191 180 185 190 181 189
125 176 202 208 220 243 131 229 246 299 25 111 88 65 272 282 204 191 188 225 211 168 151 162 122 118 202 243 251 263 191 187 160 131 102 96 104 120 135 139 140 145 158 160 161 156 161 175 180 166 167 167 169 179 177 174 175 180 194 197 190 187 188 187 186 181 177 176 176 176 184 191 183 176 179 181 172 165 182 181 179 160 164 177 203 210 206
194 194 205 222 212 196 239 229 249 243 259 113 72 49 281 246 241 313 202 218 184 154 162 154 163 166 213 244 254 317 188 159 155 145 141 115 101 91 92 98 130 134 128 116 135 158 174 179 162 159 157 163 172 174 175 170 180 193 200 199 191 190 191 186 180 176 177 179 182 182 189 184 178 177 155 146 164 170 177 173 162 157 162 176 199 222 213
210 196 238 10 291 270 193 187 191 206 258 74 108 197 211 184 215 294 149 190 156 148 149 164 177 222 186 148 129 62 96 98 80 72 91 117 122 130 122 130 126 125 139 149 163 168 161 145 144 147 148 154 171 171 166 172 196 203 201 193 191 196 182 173 175 180 181 184 186 190 184 177 166 154 158 162 156 162 170 163 155 155 170 188 203 225 226
214 221 221 244 293 220 163 1 158 218 105 173 204 203 49 148 181 239 143 136 158 148 163 185 186 124 122 102 79 81 86 116 114 105 105 96 78 72 105 122 122 122 114 114 111 117 137 145 145 147 150 161 169 166 171 195 206 206 198 191 184 174 174 177 180 180 183 186 183 173 156 147 154 160 153 147 159 158 164 168 165 169 168 188 203 230 239
85 108 231 204 246 208 125 127 56 315 129 234 149 135 20 116 163 149 149 138 179 153 178 172 125 122 103 113 111 99 105 116 130 131 132 136 145 142 127 110 113 129 129 133 145 148 142 142 149 154 155 168 174 177 189 210 209 198 180 171 171 174 176 177 181 182 180 173 169 160 161 162 158 158 152 151 155 156 163 168 166 167 178 191 211 233 241
163 184 200 204 209 149 195 149 172 191 199 167 155 136 112 61 126 159 130 186 185 180 154 151 136 138 124 91 108 100 95 112 118 128 136 134 134 133 131 149 151 134 131 134 137 133 135 150 155 162 162 172 177 182 209 215 176 152 162 170 166 173 181 183 173 174 172 167 158 157 157 154 154 151 156 154 155 166 168 169 171 176 189 193 212 227 231
164 200 189 213 216 165 173 122 248 139 123 111 159 133 141 148 209 183 158 198 190 172 149 150 147 132 167 155 156 137 156 139 147 157 171 163 162 160 157 163 157 142 150 152 141 137 152 159 168 170 174 166 178 194 221 170 173 175 174 166 171 181 182 176 172 163 151 157 157 156 158 156 158 160 157 158 162 175 168 178 179 185 194 189 206 218 222
118 43 149 139 85 152 129 21 335 127 128 55 74 132 118 187 177 171 176 182 156 135 134 122 151 158 159 131 135 124 136 139 149 145 136 131 135 142 129 147 163 158 130 133 143 159 168 171 170 176 183 172 174 215 187 166 174 162 160 166 178 186 176 170 162 149 150 147 148 154 158 170 172 170 167 172 173 170 177 191 192 194 196 192 205 212 223
140 239 95 137 166 157 135 119 57 47 94 146 128 106 123 144 136 118 87 137 149 150 139 147 159 170 161 152 174 151 144 156 163 166 169 184 174 165 181 183 151 149 144 152 174 178 193 209 185 191 191 205 213 190 149 159 151 156 163 174 180 172 172 164 154 158 162 165 162 161 166 164 169 169 170 175 176 179 183 187 196 199 197 196 202 208 220
174 223 150 215 326 108 153 151 159 164 176 138 91 100 117 111 100 115 127 106 109 129 149 171 151 171 163 155 181 178 186 183 178 178 180 184 186 218 177 137 147 146 165 182 188 190 208 208 196 195 202 214 217 199 150 142 143 148 167 178 182 186 179 167 169 171 173 165 163 170 180 177 180 182 185 184 189 193 188 189 184 196 193 202 202 204 214
114 35 20 181 94 41 257 259 265 220 167 165 157 140 128 118 111 107 95 103 162 151 183 147 139 140 187 185 184 186 195 189 186 196 193 190 197 183 165 174 166 182 188 192 202 196 215 200 189 195 212 221 205 194 173 135 143 157 175 183 176 167 160 156 169 172 172 170 177 174 181 191 209 200 188 191 202 218 225 193 196 188 191 204 206 206 198
200 197 181 175 127 215 222 222 215 214 196 158 171 145 135 144 131 140 123 107 101 136 151 153 149 165 183 190 170 189 192 196 201 195 198 197 201 201 199 169 192 211 208 203 204 209 223 190 186 201 216 220 192 176 160 153 152 166 169 161 169 178 172 174 168 167 177 178 180 179 180 190 192 227 224 210 207 201 216 213 216 218 202 203 198 190 201
219 168 162 186 142 157 191 194 208 189 184 162 169 186 185 180 177 166 144 138 129 158 188 156 154 175 185 208 182 179 189 205 205 200 189 196 206 216 185 175 198 209 224 224 227 234 232 190 200 208 217 193 168 172 162 163 163 165 154 169 182 185 175 190 184 182 179 179 183 182 181 181 189 196 222 233 223 221 217 218 222 225 225 224 214 200 191
331 170 162 175 151 159 213 192 186 185 180 175 194 201 167 170 177 178 169 176 170 188 186 218 190 181 188 198 164 197 223 225 210 218 215 209 210 206 183 191 207 215 237 238 228 234 236 211 224 215 206 192 175 177 166 165 168 169 176 176 193 197 193 186 174 177 182 179 175 182 184 182 187 190 198 215 247 229 225 222 223 225 228 230 228 225 218
193 193 166 173 145 165 191 179 176 172 170 168 186 194 168 168 190 174 175 192 182 163 172 204 230 193 183 206 179 185 197 222 210 214 220 212 214 188 197 195 208 211 221 217 223 235 240 230 235 230 214 213 179 174 172 170 169 178 187 189 197 191 183 180 179 177 177 180 184 183 185 183 189 187 196 201 212 222 224 225 224 225 228 228 229 229 230
131 124 129 112 100 131 128 63 51 156 176 174 153 133 173 174 178 160 180 174 186 180 175 183 192 218 183 196 207 208 203 224 229 214 216 233 233 213 222 216 222 214 217 212 214 215 212 211 215 214 220 209 185 180 170 170 176 186 189 197 197 188 183 181 176 184 184 185 182 190 189 190 189 190 200 198 202 186 183 191 220 230 231 230 231 235 240
120 134 107 84 113 205 203 163 204 192 171 160 153 163 157 144 144 144 145 143 165 171 181 198 186 187 183 197 194 197 195 235 207 226 211 218 222 222 225 227 221 213 207 211 215 211 205 209 208 214 225 213 185 170 168 170 175 185 189 189 191 191 179 173 183 184 184 183 182 181 182 187 188 190 195 192 189 191 184 188 197 203 217 245 248 245 249
142 160 143 160 194 198 215 226 158 147 155 160 159 138 134 118 122 131 141 143 166 222 203 154 145 170 192 214 165 218 197 196 220 232 227 227 233 245 235 212 211 208 204 206 218 216 200 202 208 214 228 194 170 164 163 165 169 178 179 177 180 182 176 176 172 177 178 178 174 177 180 184 179 181 173 173 183 188 182 185 182 184 185 178 175 325 289
169 184 193 166 180 193 188 132 102 99 120 131 119 119 123 123 148 151 263 229 199 161 186 198 196 189 180 202 169 187 203 209 215 224 229 245 262 231 200 157 124 112 163 219 235 207 201 212 213 221 223 188 161 155 158 160 168 171 171 173 175 174 171 173 166 160 159 159 162 161 159 154 157 159 159 166 159 159 167 181 191 196 194 198 75 323 294
176 180 164 160 118 113 118 141 173 180 153 141 133 153 160 154 197 245 240 257 224 243 254 177 162 197 180 176 198 195 206 218 222 233 232 229 222 187 137 118 91 77 349 283 249 228 214 218 211 223 215 191 173 162 155 157 159 164 165 170 170 166 159 148 141 136 134 143 146 142 138 141 148 150 153 156 163 169 176 182 183 181 206 201 218 218 227
186 181 185 186 154 136 153 181 178 180 172 167 166 161 135 142 188 236 258 243 240 250 267 275 260 304 186 201 216 210 209 211 207 196 145 120 123 137 151 147 176 240 245 259 280 207 209 220 207 217 168 159 155 150 143 144 140 133 134 135 138 144 145 144 140 135 136 132 136 131 140 142 150 153 165 160 164 168 172 164 179 190 184 195 213 228 245
159 188 193 199 190 200 217 174 134 166 182 183 148 167 181 169 203 221 229 227 232 222 257 315 269 250 250 253 219 201 209 220 203 165 146 122 107 52 35 353 344 4 42 41 20 18 111 145 189 85 97 122 127 135 136 134 133 137 146 135 124 123 141 146 134 135 129 137 135 139 150 149 159 151 153 157 167 171 168 175 198 201 193 209 223 233 245
154 167 249 226 227 241 240 231 174 209 184 166 196 200 201 202 200 205 204 206 229 252 223 243 252 273 280 249 173 185 205 162 78 67 293 250 135 58 41 52 61 54 54 41 26 24 55 48 90 64 70 86 107 115 119 125 130 133 133 130 124 128 133 137 132 122 120 132 141 152 148 149 148 145 159 159 163 163 175 193 196 198 211 208 220 234 229
176 188 196 195 181 194 210 229 209 194 212 216 209 183 184 194 193 200 212 212 202 238 240 242 253 222 135 135 148 114 102 329 311 297 290 254 160 116 75 75 87 91 70 37 33 38 40 61 87 83 80 86 95 96 107 109 118 121 132 127 130 132 132 133 131 126 136 136 142 135 133 142 145 153 159 164 160 162 181 186 194 198 213 234 237 241 255
185 200 196 194 192 196 192 193 193 191 186 193 208 197 200 196 181 195 185 168 199 227 245 55 44 65 84 81 75 106 150 221 250 320 36 99 132 136 120 95 83 71 49 29 39 39 42 74 91 97 93 91 88 86 86 98 108 120 125 126 129 137 136 128 129 141 143 144 136 141 146 150 149 143 148 149 161 170 177 182 191 200 216 237 252 247 251
192 178 128 138 173 169 156 153 162 170 173 182 191 190 180 158 114 90 90 54 24 34 31 19 28 58 53 74 293 257 244 265 281 330 86 90 96 98 87 88 92 83 74 42 37 45 52 81 105 111 105 100 91 72 67 68 88 99 108 113 120 118 116 118 115 116 128 137 143 145 137 141 136 141 144 140 151 157 171 194 206 218 219 232 235 245 253
19 132 127 107 75 89 84 64 29 69 115 115 104 100 88 57 56 27 20 34 37 29 10 6 35 40 3 35 90 66 53 39 30 51 75 86 82 74 69 64 65 75 61 28 9 37 47 73 93 92 83 75 74 72 72 83 82 91 99 88 110 123 128 123 125 126 124 121 128 129 128 128 132 135 142 154 172 188 190 207 221 221 230 233 238 242 253
42 53 65 66 65 70 61 37 355 32 83 75 49 55 56 59 34 38 49 55 36 12 354 30 98 122 110 87 64 57 43 30 37 60 72 75 83 83 61 63 35 32 46 9 350 56 63 61 65 73 75 77 77 68 74 91 99 98 94 101 122 129 129 131 128 128 123 126 127 130 138 149 155 167 173 177 192 199 209 211 215 222 234 238 239 241 242
52 46 58 60 68 73 77 55 48 40 46 95 101 74 43 40 39 65 70 55 30 10 28 22 49 77 83 97 81 55 36 19 33 73 83 82 77 84 79 85 105 104 184 67 83 90 86 59 57 66 71 80 88 90 82 85 91 97 90 98 99 119 125 135 140 137 137 139 136 144 147 154 161 171 186 192 196 204 210 212 223 231 238 243 243 247 245
51 46 44 58 73 71 79 75 62 62 51 49 74 66 6 35 30 59 69 55 20 19 19 11 75 91 82 85 90 66 26 14 40 77 94 96 94 101 104 62 25 357 23 77 82 93 98 89 79 83 84 88 103 103 64 62 75 85 91 100 105 105 117 130 134 138 142 144 149 150 156 168 167 175 178 183 192 197 206 219 228 237 249 256 254 254 255
47 39 48 70 69 69 85 90 76 60 52 47 43 39 23 15 13 90 69 59 17 26 35 39 82 80 74 89 98 104 69 43 52 53 80 99 101 117 104 83 16 23 36 65 69 53 49 57 87 92 89 96 102 109 106 77 69 83 100 107 96 103 119 127 138 137 147 146 156 166 173 176 180 186 191 199 210 216 216 220 224 228 223 233 242 242 241
31 47 69 73 73 75 78 88 97 79 60 54 46 40 31 28 65 73 66 67 58 51 55 51 62 94 104 101 100 91 70 57 65 54 49 78 98 92 95 139 138 122 79 76 75 73 59 51 54 79 86 92 90 106 106 94 96 94 84 84 94 103 115 121 129 140 141 154 163 173 181 186 188 192 196 200 213 216 223 224 233 233 233 228 234 235 235
33 49 59 65 67 70 78 83 84 92 85 55 45 37 35 37 53 69 71 65 64 65 66 68 74 83 94 100 97 89 87 94 92 95 74 69 66 60 133 161 146 153 114 123 108 101 92 94 85 79 96 105 116 116 93 79 67 75 72 76 77 98 113 132 147 149 152 162 175 182 183 189 188 196 204 212 219 221 219 225 230 238 237 236 238 243 243
35 45 54 65 66 68 84 89 91 83 77 52 32 38 47 50 47 59 70 73 69 67 81 81 82 82 86 100 101 97 95 85 93 117 112 96 60 29 52 95 118 119 111 121 112 112 104 95 104 115 112 124 124 116 107 108 106 93 84 101 126 132 146 166 163 177 177 189 187 197 194 201 205 214 215 224 229 230 227 228 233 231 235 234 236 237 240
44 34 43 57 60 67 73 79 92 91 99 118 81 56 48 50 46 40 55 67 72 64 62 65 64 59 60 64 83 95 92 89 85 54 113 107 81 27 70 118 118 105 75 110 114 110 102 104 116 123 126 134 139 135 116 124 136 134 131 129 146 175 177 182 196 202 199 203 203 199 198 204 210 216 219 226 223 226 231 229 232 227 227 234 235 235 239
51 49 50 71 74 74 77 88 99 113 118 99 74 54 38 41 50 51 49 69 76 65 63 72 77 69 79 92 103 110 102 80 57 48 64 90 143 167 130 89 62 91 94 91 98 104 115 129 124 119 125 132 138 119 52 123 148 149 155 162 194 186 206 202 204 207 210 209 218 216 222 225 218 220 219 222 229 232 236 233 235 233 225 231 230 233 237
64 67 63 79 84 88 84 89 105 100 89 73 67 57 26 33 56 67 70 74 83 82 76 70 69 53 63 72 62 70 69 77 59 51 49 44 62 69 90 87 82 65 46 42 56 100 124 132 134 139 139 147 154 190 242 135 147 169 165 182 193 210 212 220 221 218 224 225 223 223 228 225 227 229 231 233 234 234 234 235 241 242 241 243 250 249 249
79 78 68 77 99 104 103 93 81 73 67 76 102 104 103 93 84 86 90 88 85 84 78 77 75 58 50 46 48 74 77 92 81 19 53 62 76 85 61 52 51 63 86 96 88 97 122 134 142 149 148 152 162 205 246 193 194 198 202 206 204 212 219 222 228 226 225 230 228 230 232 234 236 237 235 235 240 238 235 234 241 250 244 239 245 243 244
87 90 87 71 61 72 78 77 77 78 85 111 106 114 130 104 99 75 65 70 78 77 75 73 70 61 61 59 67 39 14 357 125 157 136 93 77 85 83 73 37 1 360 74 71 87 120 133 144 161 166 178 201 223 207 212 210 216 216 221 224 225 226 228 232 226 223 223 226 222 225 226 228 223 232 232 235 237 236 239 242 239 244 244 247 247 244
65 63 55 52 56 51 61 83 82 94 105 89 75 37 78 118 85 53 66 72 90 89 82 69 64 61 65 54 50 41 32 46 61 82 85 82 87 93 88 87 65 30 10 37 212 187 169 182 181 184 182 202 219 233 228 221 217 221 225 232 234 235 229 230 233 232 229 231 228 229 229 228 230 230 232 231 235 234 236 240 244 246 247 245 245 245 245
67 79 80 76 85 87 74 86 108 106 108 114 110 81 90 92 101 99 62 52 65 76 66 61 59 55 40 55 61 42 37 35 55 69 73 40 55 81 109 183 169 217 246 255 251 239 189 185 196 192 203 220 227 228 224 227 229 230 229 233 233 237 239 238 232 236 237 235 237 240 242 243 238 241 240 242 243 246 246 247 249 249 246 246 246 246 246
80 88 108 101 91 94 92 83 85 81 73 62 60 61 70 88 89 70 50 41 51 51 67 76 35 19 50 56 65 58 49 41 31 42 129 216 297 258 170 223 243 227 217 257 259 251 259 245 198 193 203 230 243 245 246 242 237 241 243 242 240 239 236 236 234 239 240 237 235 238 237 236 232 236 243 239 239 242 243 241 243 243 243 244 243 244 245